Pecos, TX

4:59 AM CST on January 24, 2018 (GMT -0600)
Pecos Municipal

Weather History for KPEQ - March, 2014

Change the Weather History Date:

Saturday, March 8, 2014

  Actual Average Record
Temperature  
Mean Temperature 52 °F -  
Max Temperature 59 °F 75 °F 92 °F (1951)
Min Temperature 44 °F 34 °F 19 °F (1956)
Degree Days  
Heating Degree Days 14    
Growing Degree Days 2 (Base 50)    
Moisture  
Dew Point 30 °F    
Average Humidity 42    
Maximum Humidity 61    
Minimum Humidity 30    
Precipitation  
Precipitation 0.00 in - - ()
Sea Level Pressure  
Sea Level Pressure 30.14 in    
Wind  
Wind Speed 11 mph (North)    
Max Wind Speed 20 mph    
Max Gust Speed 26 mph    
Visibility 10 miles    
Events      
Averages and records for this station are not official NWS values.
T = Trace of Precipitation, MM = Missing Value Source: NWS Daily Summary

Daily Weather History Graph

Daily Weather History Graph

Search for Another Location

Airport or City:

Trip Planner

Search our weather history database for the weather conditions in past years. The results will help you decide how hot, cold, wet, or windy it might be!

Date:

Astronomy

Mar. 08, 2014 Rise Set
Actual Time 7:12 AM CST 6:57 PM CST
Civil Twilight 6:48 AM CST 7:21 PM CST
Nautical Twilight 6:20 AM CST 7:49 PM CST
Astronomical Twilight 5:52 AM CST 8:17 PM CST
Moon 12:19 PM CST (3/8) 1:34 AM CST (3/8)
Length of Visible Light 12h 33m
Length of Day
11h 44m
First Quarter, 52% of the Moon is Illuminated
Mar 8
First Quarter
Mar 16
Full
Mar 23
Last Quarter
Mar 30
New
Apr 7
First Quarter

Hourly Weather History & Observations

Time (CST) Temp. Windchill Dew Point Humidity Pressure Visibility Wind Dir Wind Speed Gust Speed Precip Events Conditions
12:15 AM 54.7 °F - 23.9 °F 30% 29.82 in 10.0 mi WNW 3.5 mph - N/A   Clear
12:35 AM 54.7 °F - 26.4 °F 34% 29.83 in 10.0 mi NW 5.8 mph - N/A   Clear
12:55 AM 55.4 °F - 26.6 °F 33% 29.83 in 10.0 mi West 6.9 mph - N/A   Clear
1:15 AM 55.8 °F - 26.6 °F 33% 29.84 in 10.0 mi West 8.1 mph - N/A   Clear
1:35 AM 57.2 °F - 26.6 °F 31% 29.84 in 10.0 mi WNW 10.4 mph - N/A   Scattered Clouds
1:55 AM 57.0 °F - 27.5 °F 32% 29.85 in 10.0 mi WNW 12.7 mph - N/A   Scattered Clouds
2:15 AM 57.6 °F - 28.4 °F 33% 29.86 in 10.0 mi NW 13.8 mph - N/A   Clear
2:35 AM 57.7 °F - 29.5 °F 34% 29.87 in 10.0 mi NW 13.8 mph - N/A   Clear
2:55 AM 57.2 °F - 29.8 °F 35% 29.88 in 10.0 mi NW 11.5 mph - N/A   Clear
3:15 AM 58.6 °F - 30.2 °F 34% 29.89 in 10.0 mi NNW 11.5 mph - N/A   Scattered Clouds
3:35 AM 58.1 °F - 30.0 °F 34% 29.90 in 10.0 mi North 10.4 mph - N/A   Mostly Cloudy
3:55 AM 57.6 °F - 29.8 °F 35% 29.91 in 10.0 mi North 13.8 mph 19.6 mph N/A   Scattered Clouds
4:15 AM 56.5 °F - 30.9 °F 38% 29.92 in 7.0 mi North 16.1 mph 20.7 mph N/A   Scattered Clouds
4:35 AM 55.2 °F - 31.5 °F 40% 29.93 in 7.0 mi North 18.4 mph 26.5 mph N/A   Scattered Clouds
4:55 AM 53.6 °F - 32.4 °F 44% 29.96 in 10.0 mi North 18.4 mph 25.3 mph N/A   Clear
5:15 AM 51.4 °F - 33.6 °F 51% 29.97 in 10.0 mi North 18.4 mph 25.3 mph N/A   Clear
5:35 AM 50.4 °F - 33.8 °F 53% 29.99 in 10.0 mi North 12.7 mph - N/A   Clear
5:55 AM 49.6 °F - 33.6 °F 54% 30.01 in 10.0 mi North 13.8 mph - N/A   Clear
6:15 AM 48.9 °F - 33.6 °F 56% 30.04 in 10.0 mi North 15.0 mph - N/A   Clear
6:35 AM 47.5 °F - 33.1 °F 57% 30.07 in 10.0 mi North 12.7 mph 19.6 mph N/A   Clear
6:55 AM 46.8 °F - 32.9 °F 59% 30.11 in 10.0 mi North 12.7 mph 23.0 mph N/A   Clear
7:15 AM 46.4 °F 39.2 °F 32.9 °F 59% 30.12 in 10.0 mi NNW 18.4 mph - N/A   Clear
7:35 AM 45.5 °F 39.6 °F 32.5 °F 61% 30.14 in 10.0 mi North 12.7 mph - N/A   Clear
7:55 AM 45.5 °F 38.1 °F 32.2 °F 60% 30.16 in 10.0 mi NNW 18.4 mph 21.9 mph N/A   Clear
8:15 AM 44.8 °F 36.9 °F 31.8 °F 60% 30.18 in 10.0 mi North 19.6 mph 24.2 mph N/A   Clear
8:35 AM 44.4 °F 36.6 °F 31.5 °F 60% 30.19 in 10.0 mi NNW 18.4 mph 23.0 mph N/A   Clear
8:55 AM 44.2 °F 36.7 °F 31.5 °F 61% 30.21 in 10.0 mi North 17.3 mph 24.2 mph N/A   Clear
9:15 AM 45.9 °F 39.1 °F 31.5 °F 57% 30.22 in 10.0 mi North 16.1 mph 23.0 mph N/A   Clear
9:35 AM 47.1 °F - 31.6 °F 55% 30.23 in 10.0 mi NNW 18.4 mph 24.2 mph N/A   Scattered Clouds
9:55 AM 48.2 °F - 31.6 °F 53% 30.23 in 10.0 mi North 17.3 mph 23.0 mph N/A   Scattered Clouds
10:15 AM 48.9 °F - 31.5 °F 51% 30.24 in 10.0 mi North 19.6 mph 25.3 mph N/A   Clear
10:35 AM 49.6 °F - 31.3 °F 49% 30.24 in 10.0 mi NNW 16.1 mph 19.6 mph N/A   Clear
10:55 AM 51.3 °F - 31.3 °F 46% 30.24 in 10.0 mi North 16.1 mph 23.0 mph N/A   Clear
11:15 AM 51.3 °F - 30.7 °F 45% 30.25 in 10.0 mi North 16.1 mph 19.6 mph N/A   Clear
11:35 AM 52.7 °F - 30.7 °F 43% 30.25 in 10.0 mi North 10.4 mph 17.3 mph N/A   Clear
11:55 AM 52.5 °F - 30.2 °F 42% 30.24 in 10.0 mi NNE 12.7 mph 19.6 mph N/A   Clear
12:15 PM 52.9 °F - 30.4 °F 42% 30.25 in 10.0 mi North 10.4 mph 18.4 mph N/A   Clear
12:35 PM 54.3 °F - 30.6 °F 40% 30.23 in 10.0 mi North 10.4 mph 17.3 mph N/A   Clear
12:55 PM 54.7 °F - 30.7 °F 40% 30.23 in 10.0 mi NW 11.5 mph 19.6 mph N/A   Clear
1:15 PM 56.1 °F - 30.9 °F 38% 30.22 in 10.0 mi North 9.2 mph 18.4 mph N/A   Clear
1:35 PM 55.8 °F - 30.7 °F 39% 30.21 in 10.0 mi North 15.0 mph 18.4 mph N/A   Clear
1:55 PM 57.4 °F - 31.1 °F 37% 30.20 in 10.0 mi NNE 13.8 mph 17.3 mph N/A   Clear
2:15 PM 57.6 °F - 31.1 °F 37% 30.20 in 10.0 mi NNE 10.4 mph 16.1 mph N/A   Clear
2:35 PM 56.8 °F - 31.1 °F 38% 30.19 in 10.0 mi North 8.1 mph 18.4 mph N/A   Clear
2:55 PM 58.5 °F - 31.3 °F 36% 30.18 in 10.0 mi NNW 9.2 mph 17.3 mph N/A   Clear
3:15 PM 58.5 °F - 31.1 °F 35% 30.18 in 10.0 mi North 12.7 mph 21.9 mph N/A   Clear
3:35 PM 58.1 °F - 31.1 °F 36% 30.18 in 10.0 mi North 15.0 mph 19.6 mph N/A   Scattered Clouds
3:55 PM 58.1 °F - 30.9 °F 36% 30.18 in 10.0 mi NNE 13.8 mph 19.6 mph N/A   Scattered Clouds
4:15 PM 58.1 °F - 30.7 °F 35% 30.19 in 10.0 mi NNE 11.5 mph - N/A   Scattered Clouds
4:35 PM 58.6 °F - 30.9 °F 35% 30.19 in 10.0 mi NE 11.5 mph - N/A   Scattered Clouds
5:00 PM 58.5 °F - 30.2 °F 34% 30.19 in 10.0 mi NE 11.5 mph 18.4 mph N/A   Scattered Clouds
5:15 PM 58.8 °F - 30.4 °F 34% 30.20 in 10.0 mi NNE 10.4 mph 16.1 mph N/A   Scattered Clouds
5:35 PM 59.4 °F - 30.2 °F 33% 30.20 in 10.0 mi North 13.8 mph 18.4 mph N/A   Scattered Clouds
5:55 PM 58.5 °F - 29.8 °F 34% 30.21 in 10.0 mi North 12.7 mph - N/A   Mostly Cloudy
6:15 PM 57.6 °F - 29.8 °F 35% 30.22 in 10.0 mi North 13.8 mph - N/A   Overcast
6:35 PM 57.2 °F - 30.0 °F 36% 30.23 in 10.0 mi North 11.5 mph - N/A   Overcast
6:55 PM 57.2 °F - 30.0 °F 36% 30.24 in 10.0 mi NNE 11.5 mph 17.3 mph N/A   Overcast
7:15 PM 56.5 °F - 30.0 °F 36% 30.24 in 10.0 mi NNE 11.5 mph - N/A   Overcast
7:35 PM 55.8 °F - 29.7 °F 37% 30.26 in 10.0 mi NNE 9.2 mph - N/A   Overcast
7:55 PM 54.9 °F - 29.3 °F 38% 30.26 in 10.0 mi NE 10.4 mph - N/A   Overcast
8:15 PM 53.2 °F - 29.1 °F 40% 30.26 in 10.0 mi NE 9.2 mph - N/A   Scattered Clouds
8:35 PM 52.0 °F - 28.9 °F 41% 30.26 in 10.0 mi NE 9.2 mph - N/A   Clear
8:55 PM 50.7 °F - 28.6 °F 42% 30.27 in 10.0 mi NE 8.1 mph - N/A   Clear
9:15 PM 49.1 °F - 28.4 °F 45% 30.29 in 10.0 mi NE 5.8 mph - N/A   Clear
9:35 PM 49.6 °F - 29.1 °F 45% 30.30 in 10.0 mi NNE 6.9 mph - N/A   Clear
9:55 PM 50.4 °F - 28.9 °F 44% 30.31 in 10.0 mi NNE 9.2 mph - N/A   Scattered Clouds
10:15 PM 50.9 °F - 28.4 °F 42% 30.32 in 10.0 mi North 11.5 mph 16.1 mph N/A   Scattered Clouds
10:35 PM 50.4 °F - 28.4 °F 43% 30.33 in 10.0 mi NNE 6.9 mph - N/A   Mostly Cloudy
10:55 PM 50.0 °F - 28.8 °F 44% 30.33 in 10.0 mi NNE 9.2 mph - N/A   Overcast
11:15 PM 49.5 °F - 28.9 °F 45% 30.33 in 10.0 mi NE 6.9 mph - N/A   Overcast
11:35 PM 49.1 °F - 29.1 °F 46% 30.34 in 10.0 mi NE 4.6 mph - N/A   Overcast
11:55 PM 49.1 °F - 29.3 °F 46% 30.34 in 10.0 mi NE 6.9 mph - N/A   Overcast